Starlink 5546

operational
NORAD ID: 55632 Int'l Des: 2023-021 Owner: SPXS Country: US Constellation: starlink
LEOCIRCULAR

关于 Starlink 5546

正在加载描述...

实时位置

正在加载3D地球...

即将过境

高度历史

Altitude vs Time

uPlot chart will show altitude changes over time

两行轨道根数

1 55632U 23021E 25257.48121141 .00000814 00000-0 76011-4 0 9994
2 55632 69.9982 288.7478 0003176 269.9291 90.1504 14.98328554141908
Epoch: Sep 14, 2025 • Age: 26 hours

当前状态

高度 579.0 km
速度 7.57 km/s
星下点 41.04°N, 108.92°E
发射日期 Feb 17, 2023
运行时间 2.5 years
类型 internet

技术详情

分类 Payload
质量 305.00 kg
干质量 290.00 kg
总质量 305.00 kg
长度 0.20 m
直径 2.80 m
跨度 9.00 m
形状 Box + pan
制造商 SPXS
平台类型 Starlink
阶段状态 In Orbit
所有者/国家 SPXS/US

大型星座

Loading constellations...